LiveATC.Net - Listen to live air traffic control over the Internet!


ICAO: KLUK  IATA: LUK   Airport: Cincinnati Municipal Airport-Lunken Field
City: Cincinnati   State/Province: Ohio
Country: United States   Continent: North America
KLUK METAR Weather: KLUK 161853Z 05008KT 10SM BKN036 26/18 A3009 RMK AO2 SLP185 T02610183
KLUK Flight Activity (FlightAware)
KLUK Airport Info   (iFlightPlanner)
KLUK VFR Sectional Chart   (iFlightPlanner) 
KLUK IFR Low Chart   (iFlightPlanner) 

KLUK Twr/App/Dep
Feed Status: DOWN
Last heard on: 2021-09-16 16:51:22 (0 days 2 hours 35 minutes ago)
Archive Access: KLUK Twr/App/Dep
FacilityFrequency
Cincinnati Approach121.000
Cincinnati Departure128.700
Lunken Tower118.700

NOTICE

Unauthorized use prohibited. See LiveATC.net Terms of Service


Airport/ARTCC Code
Frequency Search
(e.g., 124.400, 128.75)
Site-wide search
 


Browse Feeds
Top 50 Feeds
HF Oceanic Feeds
Coverage Map
Bad Weather Areas

LiveATC FAQ
Offer LiveATC feed
Contact LiveATC.net
Press Inquiries

LiveATC on iPhone
LiveATC on Android

Windows Phone
Windows 8/10

LiveATC Mobile
(Mobile browser)

ATC Audio Archives
Interesting Recordings

LiveATC Forums


Home Page
About LiveATC.net
Make a Donation
Terms of Use
Privacy Policy

Canadian Air Freqs

AIRMETs/SIGMETs

FAA Airport Status
NAS Status
Arrival Demand


Server Software By:
Icecast.org
Liquidsoap